Flag for Luxembourg Weather past 2 weeks in Differdange, Luxembourg

Now
54 °F

Passing clouds.


Feels Like: 48 °F
Forecast: 46 / 61 °F
Wind: 20 mph from Northeast

Location: Luxembourg Airport


UV Index: 0 (Low)

Visibility: N/A


Pressure: 29.89 "Hg

Humidity: 47%

Dew point: 34 °F

Location of DifferdangeLocation

Historic Weather in Differdange

°F

Differdange temperature yesterday

Maximum temperature yesterday: 54 °F (at 12:20 AM)
Minimum temperature yesterday: 43 °F (at 10:20 PM)
Average temperature yesterday: 49 °F

Past Weeks' High & Low Weather Summary

 TemperatureHumidityPressure
High68 °F (Apr 7, 4:20 PM)100% (Apr 5, 7:20 AM)30.36 "Hg (Apr 5, 7:20 AM)
Low34 °F (Apr 15, 6:50 AM)27% (Apr 17, 5:20 PM)29.74 "Hg (Apr 4, 1:20 PM)
Average51 °F65%30.09 "Hg
* Reported Apr 4 1:20 PM — Apr 19 1:20 PM, Differdange, Weather by CustomWeather, © 2014

Note: Actual official high and low records may vary slightly from our data, if they occured in-between our weather recording intervals... More about our weather records

Advertising

Historic Weather Conditions — Data for Previous 24 hours

 ConditionsComfort  
Time TempWeatherWind HumidityBarometerVisibility
1:20 PM
Apr 19
52 °FPassing clouds.17 mph54%29.92 "HgN/A
12:50 PM48 °FScattered clouds.17 mph58%29.92 "HgN/A
12:20 PM48 °FScattered clouds.18 mph62%29.92 "HgN/A
11:50 AM46 °FPassing clouds.17 mph66%29.95 "HgN/A
11:20 AM46 °FPassing clouds.15 mph66%29.95 "HgN/A
10:50 AM46 °FPassing clouds.14 mph71%29.95 "HgN/A
10:20 AM45 °FPassing clouds.13 mph71%29.95 "HgN/A
9:50 AM43 °FPassing clouds.14 mph76%29.95 "HgN/A
9:20 AM43 °FSunny.15 mph76%29.95 "Hg10 mi
8:50 AM41 °FSunny.14 mph81%29.95 "Hg10 mi
8:20 AM41 °FSunny.14 mph81%29.95 "Hg10 mi
7:50 AM39 °FSunny.12 mph87%29.95 "Hg10 mi
7:20 AM39 °FClear.12 mph87%29.95 "Hg10 mi
6:50 AM39 °FClear.12 mph87%29.95 "Hg10 mi
6:20 AM39 °FClear.15 mph87%29.92 "Hg10 mi
5:50 AM41 °FClear.15 mph81%29.92 "Hg10 mi
4:50 AM41 °FClear.14 mph81%29.92 "Hg10 mi
4:20 AM41 °FQuite cool.13 mph81%29.92 "HgN/A
3:50 AM41 °FQuite cool.10 mph81%29.92 "HgN/A
3:20 AM43 °FQuite cool.10 mph71%29.92 "HgN/A
2:50 AM43 °FQuite cool.12 mph71%29.92 "HgN/A
2:20 AM43 °FQuite cool.12 mph71%29.92 "HgN/A
1:50 AM43 °FPassing clouds.9 mph71%29.95 "HgN/A
1:20 AM43 °FClear.10 mph71%29.95 "Hg10 mi
12:50 AM43 °FPassing clouds.8 mph66%29.95 "HgN/A
12:20 AM43 °FClear.7 mph66%29.95 "Hg10 mi
11:50 PM
Apr 18
43 °FClear.6 mph66%29.95 "Hg10 mi
10:50 PM43 °FPassing clouds.6 mph61%29.95 "HgN/A
10:20 PM43 °FClear.5 mph57%29.95 "Hg10 mi
9:50 PM45 °FPassing clouds.7 mph53%29.95 "HgN/A
9:20 PM46 °FSunny.7 mph50%29.95 "Hg10 mi
8:50 PM46 °FPassing clouds.7 mph46%29.95 "HgN/A
8:20 PM48 °FPassing clouds.12 mph43%29.92 "HgN/A
7:50 PM48 °FPassing clouds.8 mph43%29.92 "HgN/A
7:20 PM50 °FPassing clouds.13 mph40%29.92 "HgN/A
6:50 PM52 °FPassing clouds.12 mph38%29.92 "HgN/A
6:20 PM52 °FPassing clouds.17 mph35%29.92 "HgN/A
5:50 PM52 °FPassing clouds.12 mph35%29.92 "HgN/A
5:20 PM52 °FPassing clouds.12 mph35%29.92 "HgN/A
4:50 PM52 °FScattered clouds.15 mph35%29.92 "HgN/A
4:20 PM50 °FScattered clouds.9 mph40%29.92 "HgN/A
3:50 PM52 °FScattered clouds.10 mph41%29.92 "HgN/A
3:20 PM54 °FPassing clouds.12 mph41%29.92 "HgN/A
2:50 PM50 °FScattered clouds.13 mph43%29.92 "HgN/A
2:20 PM50 °FScattered clouds.16 mph40%29.92 "HgN/A
Weather by CustomWeather, © 2014

See weather overview